Weather History for Chicago Executive, IL

Change the Weather History Date:

Wednesday, November 14, 2012

  Actual Average Record
Temperature  
Mean Temperature 36 °F 41 °F  
Max Temperature 46 °F 49 °F 63 °F (2001)
Min Temperature 26 °F 33 °F 15 °F (1996)
Degree Days  
Heating Degree Days 29 24  
Month to date heating degree days 331 298  
Since 1 July heating degree days 900 819  
Cooling Degree Days 0 0  
Month to date cooling degree days 0 0  
Year to date cooling degree days 1228 789  
Moisture  
Dew Point 24 °F    
Average Humidity 66    
Maximum Humidity 82    
Minimum Humidity 44    
Precipitation  
Precipitation 0.00 in 0.11 in 0.18 in (2002)
Month to date precipitation 0.48 1.43  
Year to date precipitation 19.63 30.06  
Sea Level Pressure  
Sea Level Pressure 30.49 in    
Wind  
Wind Speed 5 mph (South)    
Max Wind Speed 14 mph    
Max Gust Speed 17 mph    
Visibility 10 miles    
Events      
T = Trace of Precipitation, MM = Missing Value Source: NWS Daily Summary

Daily Weather History Graph

Daily Weather History Graph

Search for Another Location

Airport:

Trip Planner

Search our weather history database for the weather conditions in past years. The results will help you decide how hot, cold, wet, or windy it might be!

Date:

Astronomy

Nov. 14, 2012 Rise Set
Actual Time 6:41 AM CST 4:30 PM CST
Civil Twilight 6:11 AM CST 5:00 PM CST
Nautical Twilight 5:37 AM CST 5:34 PM CST
Astronomical Twilight 5:04 AM CST 6:07 PM CST
Moon 7:31 AM CST (11/14) 5:17 PM CST (11/14)
Length of Visible Light 10h 49m
Length of Day
9h 49m
New Moon, 1% of the Moon is Illuminated
Nov 14
New Moon
Nov 20
First Quarter
Nov 28
Full
Dec 6
Last Quarter
Dec 13
New

Hourly Weather History & Observations

Time (CST) Temp. Windchill Dew Point Humidity Pressure Visibility Wind Dir Wind Speed Gust Speed Precip Events Conditions
12:52 AM 28.0 °F - 21.0 °F 75% 30.53 in 10.0 mi Calm Calm - N/A   Clear
1:52 AM 28.0 °F - 21.9 °F 78% 30.53 in 10.0 mi Calm Calm - N/A   Clear
2:52 AM 28.9 °F 23.9 °F 24.1 °F 82% 30.53 in 10.0 mi South 4.6 mph - N/A   Clear
3:52 AM 30.0 °F 26.5 °F 24.1 °F 79% 30.53 in 10.0 mi SSE 3.5 mph - N/A   Partly Cloudy
4:52 AM 30.9 °F 26.2 °F 25.0 °F 79% 30.53 in 10.0 mi SSE 4.6 mph - N/A   Overcast
5:52 AM 30.0 °F 26.5 °F 25.0 °F 82% 30.54 in 10.0 mi South 3.5 mph - N/A   Mostly Cloudy
6:52 AM 28.9 °F 25.2 °F 23.0 °F 78% 30.54 in 10.0 mi South 3.5 mph - N/A   Clear
7:52 AM 33.1 °F 26.9 °F 25.0 °F 72% 30.55 in 10.0 mi South 6.9 mph - N/A   Scattered Clouds
8:52 AM 36.0 °F 29.6 °F 24.1 °F 62% 30.55 in 10.0 mi South 8.1 mph - N/A   Scattered Clouds
9:52 AM 39.0 °F 31.8 °F 25.0 °F 57% 30.55 in 10.0 mi South 11.5 mph - N/A   Overcast
10:52 AM 41.0 °F 34.7 °F 24.1 °F 51% 30.53 in 10.0 mi SSW 10.4 mph - N/A   Clear
11:52 AM 43.0 °F 37.7 °F 25.0 °F 49% 30.50 in 10.0 mi South 9.2 mph - N/A   Clear
12:52 PM 45.0 °F 39.7 °F 24.1 °F 44% 30.48 in 10.0 mi South 10.4 mph - N/A   Clear
1:52 PM 44.1 °F 39.0 °F 25.0 °F 47% 30.46 in 10.0 mi South 9.2 mph - N/A   Mostly Cloudy
2:52 PM 44.1 °F 38.6 °F 25.0 °F 47% 30.45 in 10.0 mi SSE 10.4 mph - N/A   Overcast
3:52 PM 43.0 °F 38.2 °F 24.1 °F 47% 30.44 in 10.0 mi South 8.1 mph - N/A   Clear
4:52 PM 39.9 °F 35.8 °F 24.1 °F 53% 30.44 in 10.0 mi South 5.8 mph - N/A   Clear
5:52 PM 37.0 °F 32.4 °F 24.1 °F 59% 30.44 in 10.0 mi South 5.8 mph - N/A   Clear
6:52 PM 34.0 °F 29.8 °F 24.1 °F 67% 30.44 in 10.0 mi SSE 4.6 mph - N/A   Clear
7:52 PM 30.9 °F 26.2 °F 24.1 °F 76% 30.43 in 10.0 mi SSE 4.6 mph - N/A   Clear
8:52 PM 34.0 °F - 24.1 °F 67% 30.43 in 10.0 mi Calm Calm - N/A   Clear
9:52 PM 32.0 °F - 24.1 °F 73% 30.43 in 10.0 mi Calm Calm - N/A   Clear
10:52 PM 30.9 °F - 24.1 °F 76% 30.41 in 8.0 mi Calm Calm - N/A   Clear
11:52 PM 30.9 °F 27.5 °F 24.1 °F 76% 30.42 in 8.0 mi South 3.5 mph - N/A   Clear